Probability
0 0 0 0 0 0 0 0 0 0 0 0 0 0 0 0 0 0 0 0 0 0 0 0 1 0 0 0 0 1 1 1 0 1 1 1 0 0 0 0 0 0 0
0 0 0 0 0 0 0 0 0 0 0 0 0 0 0 0 0 0 0 0 0 0 0 0 1 0 0 0 0 0 0 0 0 0 0 0 0 0 0 0 0 0 0
0 0 0 0 0 0 0 0 0 0 0 0 0 0 0 0 0 0 0 0 0 0 0 0 0 0 0 0 0 0 0 0 0 0 0 0 0 0 0 0 0 1 1
0 0 0 0 0 0 0 0 0 0 0 0 0 0 0 0 0 0 0 0 0 0 0 0 0 0 0 0 0 0 0 0 0 0 0 0 0 0 0 0 1 2 2
0 0 0 0 0 0 0 0 0 0 0 0 0 0 0 0 0 0 0 0 0 0 0 0 0 0 0 0 0 0 0 0 0 0 0 0 1 1 1 1 2 3 3
0 0 0 0 0 0 0 0 0 0 0 0 0 0 0 0 0 0 0 0 0 0 0 0 0 0 0 0 0 0 0 0 0 0 0 1 2 3 4 4 3 3 3
0 0 0 0 0 0 0 0 0 0 0 0 0 0 0 0 0 0 0 0 0 1 1 0 0 0 0 0 0 0 0 0 0 0 0 1 2 3 4 5 4 3 3
0 0 0 0 0 0 0 0 0 0 0 0 0 0 0 0 0 0 1 1 1 2 1 0 0 0 0 0 0 0 0 0 0 0 0 0 1 1 2 2 2 3 3
0 0 0 0 0 0 0 0 0 0 0 0 0 0 0 0 0 1 2 2 2 2 1 0 0 0 0 0 0 0 0 0 0 0 0 0 1 1 1 1 1 3 3
0 0 0 0 0 0 0 0 0 0 0 0 0 0 0 0 0 1 2 2 1 1 0 0 0 0 0 0 0 0 0 0 0 0 0 1 2 2 2 2 2 2 2
1 1 0 0 0 0 0 0 0 0 0 0 0 0 0 0 0 0 1 1 1 0 0 0 0 0 0 0 0 0 0 0 0 0 0 1 2 3 2 2 2 1 1
2 2 1 0 0 0 0 0 0 0 0 0 0 0 0 0 0 0 0 1 1 0 0 0 0 0 0 0 0 0 0 0 0 0 0 1 1 1 1 1 1 0 0
3 2 1 0 0 0 0 0 0 0 0 0 0 0 0 0 0 0 0 0 0 0 0 0 0 0 0 0 0 0 0 0 0 0 0 0 0 0 0 0 0 0 0
2 1 0 0 0 0 0 0 0 0 0 0 0 0 0 0 0 0 0 0 0 0 0 0 0 0 0 0 0 0 0 0 0 0 0 0 0 0 0 0 0 0 0
1 0 0 0 0 0 0 0 0 0 0 0 0 0 0 0 0 0 0 0 0 0 0 0 0 0 0 0 0 0 0 0 0 0 0 0 0 0 0 0 0 0 0
1 1 0 0 0 0 0 0 0 0 0 0 0 0 0 0 0 0 0 0 0 0 0 0 0 0 0 0 0 0 0 0 0 0 0 0 0 0 0 0 0 0 0
2 2 1 0 0 0 0 0 0 0 0 0 0 0 0 0 0 0 0 0 0 0 0 0 0 0 0 0 0 0 0 0 0 0 0 0 0 0 0 0 0 0 0
3 2 1 0 0 0 0 0 0 0 0 0 0 0 0 0 0 0 0 0 0 0 0 0 0 0 0 0 0 0 0 0 0 0 0 0 0 0 0 0 0 0 0
3 2 1 0 0 0 0 0 0 0 0 0 0 0 0 0 0 0 0 0 0 0 0 0 0 0 0 0 0 0 0 0 0 0 0 0 0 0 0 0 0 0 0
3 2 1 0 0 0 0 0 0 0 0 0 0 0 0 0 0 0 0 0 0 0 0 0 0 0 0 0 0 0 0 0 0 0 0 0 0 0 0 0 0 0 0
2 2 1 0 0 0 0 0 0 0 0 0 0 0 0 0 0 0 0 0 0 0 0 0 0 0 0 0 0 0 0 0 0 0 0 0 0 0 0 0 0 0 0
1 1 0 0 0 0 0 0 0 0 0 0 0 0 0 0 0 0 0 0 0 0 0 0 0 0 0 0 0 0 0 0 0 0 0 0 0 0 0 0 0 0 0
0 0 0 0 0 0 0 0 0 0 0 0 0 0 0 0 0 0 0 0 0 0 0 0 0 0 0 0 0 0 0 0 0 0 0 0 0 0 0 0 0 0 0
0 0 0 0 0 0 0 0 0 0 0 0 0 0 0 0 0 0 0 0 0 0 0 0 0 0 0 0 0 0 0 0 0 0 0 0 0 1 1 1 0 0 0
0 1 1 1 1 0 0 0 0 0 0 0 0 0 0 0 0 0 0 0 0 0 0 0 0 0 0 0 0 0 0 0 0 0 0 0 0 1 1 1 0 0 0
1 2 2 2 2 1 0 0 0 0 0 0 0 0 0 0 0 0 0 0 0 0 0 0 0 0 0 0 0 0 0 0 0 0 0 0 0 0 1 0 0 0 0
Wind_Speed
3 3 3 2 3 2 2 3 3 5 5 5 5 6 5 5 5 5 4 11 12 11 12 12 11 10 10 10 10 10 10 10 10 10 10 9 9 8 8 9 9 9 9
3 3 3 3 3 2 2 3 4 4 4 4 5 5 5 4 5 5 4 7 12 12 12 12 11 11 10 10 10 10 10 11 10 10 10 10 9 9 8 8 8 8 9
4 3 3 2 2 2 3 3 4 3 3 4 5 5 5 4 4 5 4 3 5 10 12 12 11 11 10 10 10 10 10 11 11 11 11 10 9 8 8 8 7 8 8
5 4 3 2 2 3 3 3 3 3 3 3 3 4 4 4 4 4 4 3 3 4 8 11 11 11 10 10 10 10 10 10 11 11 11 10 10 8 8 7 7 8 9
4 4 2 2 3 2 2 3 3 3 3 3 3 3 3 3 4 4 4 4 4 4 4 7 10 11 11 10 9 9 9 9 10 10 10 10 10 9 8 9 9 10 10
4 3 2 3 3 3 3 3 3 3 2 2 3 4 2 2 3 4 4 3 3 5 4 4 4 6 10 10 9 8 9 9 9 9 10 10 10 10 10 11 12 12 11
3 3 2 2 3 2 2 2 3 2 2 2 2 2 2 2 3 3 3 3 3 3 3 4 3 3 4 8 8 8 8 8 9 9 9 10 10 10 11 11 11 11 11
2 2 2 2 2 2 2 2 2 1 0 1 1 1 1 1 2 2 2 3 3 3 3 4 4 3 3 3 5 7 7 8 8 8 9 10 9 10 10 11 11 11 10
2 2 2 2 2 2 1 1 1 2 0 1 1 1 1 1 0 1 2 3 3 3 3 3 4 4 4 3 3 6 7 7 8 9 9 10 10 10 10 11 11 11 10
1 1 2 2 2 2 2 1 1 1 1 1 1 1 1 2 2 1 1 2 2 3 3 3 3 3 4 3 5 7 8 7 7 8 9 9 9 9 10 10 10 9 9
2 2 2 1 2 2 1 1 1 1 0 0 0 1 1 1 1 2 1 0 1 2 2 2 2 2 3 3 3 5 7 7 7 7 7 7 8 8 9 9 9 9 8
1 2 2 2 2 2 2 1 1 1 0 0 0 1 1 0 0 1 1 1 1 0 1 2 2 2 2 3 5 7 7 7 7 7 7 6 6 7 7 7 8 8 8
2 2 2 2 2 1 1 2 1 1 1 0 0 0 0 0 0 1 2 1 1 0 1 1 1 1 2 3 4 7 7 7 7 7 6 6 6 6 6 6 6 7 7
2 3 2 2 2 2 2 1 1 1 1 1 1 1 0 0 1 1 2 2 1 1 1 1 1 2 2 2 3 4 4 6 6 6 6 6 6 6 6 6 6 6 6
2 3 3 3 2 2 1 1 1 1 1 1 1 1 1 1 0 0 1 2 2 1 0 0 1 1 1 2 3 2 3 4 5 5 5 5 5 5 5 5 5 5 5
1 3 3 3 3 3 2 2 1 1 1 1 1 1 1 1 0 1 1 0 1 2 1 1 1 2 2 2 3 2 3 5 4 3 3 4 4 4 4 4 4 4 5
1 2 3 3 3 3 3 3 3 2 2 2 2 2 1 1 1 1 1 1 1 2 2 1 1 2 2 2 2 2 2 2 2 3 3 3 3 3 3 4 4 4 4
2 2 1 2 2 3 3 4 4 3 3 3 3 3 2 1 1 1 1 1 1 1 3 2 1 2 2 2 3 2 2 2 2 3 3 3 3 3 3 3 3 3 3
2 2 2 1 2 2 2 2 3 4 4 3 3 3 3 3 2 1 2 2 1 1 2 3 2 1 1 2 2 1 1 1 2 3 4 3 3 3 3 2 2 2 2
1 2 2 2 3 2 3 3 3 3 3 3 2 2 3 3 3 3 2 2 2 2 2 2 2 2 2 2 3 1 0 0 1 1 2 2 3 4 3 3 2 2 2
1 1 2 1 1 1 1 1 1 2 2 2 2 2 2 4 4 2 2 2 2 2 2 2 2 2 2 2 2 2 2 1 1 1 1 1 2 2 2 3 4 4 3
1 1 2 2 1 1 2 1 1 0 1 2 2 2 3 4 4 3 3 3 2 3 3 2 2 3 3 3 2 2 2 1 1 1 1 2 2 2 2 2 4 5 5
2 2 2 2 2 1 2 1 1 1 1 2 2 2 2 3 4 3 2 2 2 2 4 3 3 4 4 4 4 3 2 3 3 2 2 2 2 2 3 4 8 7 7
2 2 2 2 2 2 3 2 2 1 2 2 2 3 3 3 4 4 3 2 2 3 4 3 3 3 2 3 4 4 3 2 1 1 2 2 2 2 2 2 7 8 8
2 2 2 2 2 2 4 3 3 1 2 2 2 2 3 4 5 5 4 3 2 2 3 3 3 3 3 4 3 2 2 2 1 2 2 2 1 1 1 2 4 8 8
2 2 2 2 3 3 5 5 4 2 2 2 1 2 3 3 5 6 4 4 3 3 2 2 1 2 3 4 5 4 4 3 2 2 2 2 1 1 1 2 2 3 4
Wind_Direction
72 78 74 62 65 64 57 54 59 57 48 52 60 65 69 69 73 75 64 64 65 68 72 74 72 72 75 78 78 77 77 75 72 68 68 71 73 80 82 86 86 88 88
78 72 69 57 55 56 60 59 61 63 56 54 54 52 57 63 72 83 81 69 65 65 67 67 68 70 75 79 78 76 78 78 75 73 73 73 72 72 75 80 81 84 88
85 78 79 70 59 52 64 62 59 63 71 67 59 53 48 48 59 67 70 74 73 67 67 65 63 65 69 77 79 79 79 82 79 75 73 70 69 69 71 75 83 89 92
83 75 67 66 62 56 61 67 69 63 61 63 56 51 47 37 44 61 67 68 73 74 68 66 62 62 64 71 77 80 82 84 82 76 71 68 67 69 70 70 87 96 95
83 81 62 68 71 63 59 66 63 73 71 72 77 64 51 35 31 46 55 59 68 82 81 72 65 60 60 64 72 78 82 83 82 77 74 70 68 68 70 71 89 98 95
78 82 66 60 69 61 56 64 65 65 79 79 82 79 75 66 47 37 44 51 54 67 73 79 70 61 59 58 63 72 77 79 80 79 77 75 72 71 72 72 82 87 88
76 82 71 58 64 67 68 75 75 70 69 89 86 71 47 68 81 52 37 42 54 60 67 75 69 63 61 57 54 66 73 75 79 80 80 80 76 74 75 74 79 83 83
75 93 97 88 79 73 67 71 79 76 57 97 123 118 97 23 31 65 59 45 43 38 48 63 68 62 61 58 53 62 67 73 79 82 84 83 80 77 76 76 77 79 80
94 89 100 106 109 100 90 82 93 81 24 334 44 88 121 135 85 33 68 65 52 38 35 45 57 52 61 63 55 57 65 71 80 82 85 84 81 78 78 77 76 76 78
120 107 108 114 118 111 118 157 108 98 76 335 355 15 61 116 134 118 20 65 73 61 44 42 49 46 61 71 67 64 63 66 78 85 87 86 84 81 77 77 76 75 74
152 146 136 131 124 130 148 135 100 85 113 163 54 25 17 12 29 119 131 76 43 45 51 50 56 54 68 75 77 67 65 68 72 78 82 87 86 84 81 79 77 75 76
163 173 161 156 150 153 161 154 145 151 273 27 92 100 109 73 345 91 116 126 111 47 49 54 61 56 78 77 81 76 76 77 73 71 74 84 87 86 85 83 82 78 73
168 186 155 155 154 149 150 139 157 178 172 168 141 156 135 150 121 107 112 125 109 126 58 53 64 64 75 77 87 85 83 78 73 69 67 70 75 79 78 78 80 80 76
167 165 158 156 163 164 168 155 163 181 175 179 159 139 131 95 77 109 132 128 103 56 57 70 57 68 74 87 97 98 92 88 81 76 69 66 67 70 71 71 71 72 70
174 164 165 167 171 167 159 146 159 188 150 147 142 138 140 154 113 117 112 136 140 137 238 156 88 84 92 101 115 109 109 108 98 87 76 70 70 69 69 69 69 68 68
178 168 175 170 169 171 168 176 164 175 132 132 125 107 125 155 119 82 83 65 98 136 147 136 137 139 120 120 121 106 115 116 114 106 91 82 84 84 84 81 78 74 73
171 181 186 183 184 184 186 178 176 183 179 184 172 164 193 175 145 130 90 75 61 99 115 99 94 121 122 120 116 116 125 127 131 136 124 106 105 100 99 98 88 81 78
178 172 189 191 204 199 197 184 182 183 193 195 191 174 186 164 153 149 134 139 146 136 133 141 137 130 135 147 140 151 147 149 140 156 154 138 138 133 120 111 101 90 85
170 168 177 183 223 217 190 186 189 193 198 197 193 184 182 162 177 177 173 168 170 140 125 139 155 156 158 155 133 143 149 138 159 158 160 158 159 158 149 139 123 118 102
179 176 175 191 214 210 195 196 208 203 196 193 195 181 169 166 178 180 184 181 164 149 141 143 155 162 167 167 137 148 163 213 197 165 150 160 175 179 181 174 171 162 140
190 175 176 201 201 186 181 181 212 209 211 197 181 159 138 130 120 135 151 154 143 145 155 159 167 162 174 170 180 180 177 198 252 179 161 198 196 194 188 198 199 195 193
180 200 195 176 183 157 106 100 45 280 219 194 192 175 154 148 141 142 143 129 138 163 172 169 178 185 195 192 184 178 169 162 246 237 167 239 194 193 195 195 199 198 207
195 219 209 172 178 177 137 129 123 358 271 225 200 184 176 163 152 152 166 182 197 215 202 187 189 198 191 190 175 183 192 189 211 213 150 242 227 213 213 201 197 200 204
198 218 205 190 182 187 170 172 187 221 263 244 208 184 173 157 162 157 169 189 204 220 216 200 192 198 188 178 178 185 189 188 203 215 156 213 239 230 223 209 202 203 205
200 210 215 194 181 189 186 187 180 207 241 255 231 197 180 171 181 171 167 185 204 233 211 184 180 180 177 177 167 144 159 158 226 242 185 176 232 247 234 217 215 205 208
201 204 218 204 191 190 197 195 193 201 219 236 237 220 197 186 179 175 180 186 203 218 195 181 192 212 206 195 189 179 176 182 194 229 210 171 205 164 277 243 209 204 212